軌道要素
Epoch 2015 Oct. 25.0 TT = JDT 2457320.5
T 2015 Nov. 5.85528 TT Rudenko
q 2.4125106 (2000.0) P Q
z +0.0043679 Peri. 141.09647 -0.67089943 +0.02908463
+/-0.0004471 Node 300.25381 +0.25325092 +0.94813917
e 0.9894624 Incl. 120.92846 +0.69696336 -0.31652203
From 42 observations 2016 Jan. 3-Feb. 10, mean residual 0".5.
|